[[{"header":{"parameterUnit":"m.s-1","parameterCategory":1,"la1":30.2991,"la2":30.254,"lo1":-89.0895,"lo2":-89.0444,"dy":0.0017,"dx":0.0017,"nx":28,"ny":28,"refTime":"2026-01-30T09:00:00:Z","depth":0,"parameterNumber":2,"parameterNumberName":"U-component_of_WINDS"},"data":[0,0,0,0,0,0,0,0,0,0,0,0,0,0,0,0,0,0,0,0,0,0,0,0,0,0,0,0,0,0,0,0,0,0,0,0,0,0,0,0,0,0,0,0,0,0,0,0,0,0,0,0,0,0,0,0,0,0,3.2783,3.2784,0,3.2791,3.2791,3.2791,3.2741,3.274,3.2738,3.2737,3.2744,3.2746,3.2747,0,0,0,0,0,0,0,0,0,0,0,0,0,3.2729,3.273,3.2783,3.2784,3.2784,3.2791,3.2791,3.2791,3.2741,3.274,3.2738,3.2736,3.2744,3.2745,3.2747,0,0,0,0,0,0,0,0,0,0,0,0,0,3.2746,3.273,3.2783,3.276,3.2758,3.2791,3.2791,3.2791,3.2742,3.274,3.2737,3.2736,3.2743,3.2745,3.2748,3.2803,0,0,3.2754,3.2755,0,0,0,0,0,0,0,0,3.2745,3.2748,3.2763,3.2761,3.2759,3.2763,3.2774,3.2795,3.2742,3.2748,3.2737,3.2735,3.2752,3.2753,3.2759,3.2804,3.2804,3.2755,3.2756,3.2757,3.2758,0,0,0,0,0,0,0,3.2744,3.2747,3.2786,3.2764,3.2761,3.2749,3.275,3.2778,3.2762,3.2747,3.2744,3.2745,3.2751,3.2757,3.2759,3.2804,3.2755,3.2757,3.2758,3.2759,3.2897,3.2899,0,0,0,0,0,0,3.2746,3.2747,3.2786,3.2786,3.2747,3.2752,3.2752,3.2764,3.2761,3.2759,3.2747,3.2743,3.2755,3.2757,3.2759,3.2826,3.2757,3.2759,3.276,3.2895,3.2898,3.29,0,0,0,0,0,0,3.2745,3.275,3.2786,3.2766,3.2769,3.2755,3.2769,3.2765,3.2772,3.2761,3.2758,3.2757,3.2753,3.2756,3.2793,3.2825,3.276,3.2762,3.2892,3.2896,3.2899,3.2958,0,0,0,0,0,0,3.2743,3.275,3.277,3.2766,3.2771,3.2819,3.2771,3.2767,3.2776,3.277,3.2769,3.2767,3.2752,3.279,3.2796,3.2827,3.2764,3.2889,3.2894,3.2898,3.2954,3.2964,3.2972,0,0,0,0,0,3.2741,3.2786,3.2771,3.2776,3.2796,3.2821,3.2824,3.2805,3.2778,3.2799,3.2793,3.2767,3.2821,3.2795,3.28,3.2833,3.2887,3.2892,3.2898,3.2949,3.2962,3.2972,0,0,0,0,0,0,3.2792,3.2785,3.2768,3.2813,3.2818,3.2813,3.2838,3.2818,3.283,3.2825,3.2801,3.2802,3.2843,3.2842,3.2812,3.2888,3.285,3.2856,3.2887,3.2899,3.2908,3.2907,3.2766,0,0,0,0,0,3.2809,3.283,3.2822,3.2862,3.2866,3.2852,3.2862,3.2848,3.2852,3.2854,3.285,3.2855,3.2874,3.2886,3.2902,3.2954,3.2953,3.2979,3.2988,3.2996,3.3002,3.3031,3.3042,3.2917,3.2917,3.2917,0,0,3.2843,3.2842,3.2856,3.2873,3.2875,3.2898,3.2854,3.2879,3.2897,3.2858,3.2893,3.2891,3.2895,3.294,3.296,3.294,3.3037,3.3003,3.3009,3.3011,3.3037,3.3049,3.306,3.2921,3.292,3.292,0,0,3.2917,3.2918,3.2952,3.2956,3.296,3.2951,3.296,3.2958,3.2955,3.2991,3.2963,3.2983,3.3014,3.302,3.3026,3.3106,3.3083,3.3112,3.316,3.3188,3.3198,3.3207,3.3236,3.3247,3.3118,3.3118,3.3118,0,3.2959,3.2992,3.2972,3.3,3.3009,3.2976,3.3012,3.3016,3.3026,3.3033,3.3011,3.3052,3.3053,3.3099,3.3119,3.3126,3.3135,3.3111,3.3198,3.3207,3.3215,3.3242,3.3253,3.3122,3.3121,3.3121,3.312,0,3.3043,3.3067,3.3094,3.3106,3.3118,3.3149,3.3135,3.315,3.3136,3.3129,3.3167,3.3167,3.3183,3.3194,3.3179,3.3239,3.3227,3.3202,3.3163,3.323,3.3256,3.3266,3.3127,3.3125,3.3124,3.3123,0,0,3.3147,3.3149,3.316,3.3165,3.3169,3.3188,3.3219,3.3236,3.3249,3.3258,3.3284,3.3313,3.3291,3.3299,3.3285,3.331,3.3375,3.3283,3.3282,3.33,3.3442,3.3461,3.3473,3.336,3.3362,3.3364,3.3442,0,3.322,3.3273,3.3257,3.3311,3.3333,3.3304,3.3332,3.3338,3.3333,3.3352,3.3348,3.3369,3.3338,3.3343,3.3366,3.3362,3.3403,3.3356,3.3385,3.3386,3.3384,3.3486,3.3505,3.3579,3.3452,3.3454,3.3455,0,3.3311,3.3324,3.338,3.3383,3.3392,3.3417,3.3432,3.3451,3.3458,3.3453,3.3464,3.3445,3.3477,3.3439,3.3483,3.3452,3.3463,3.3463,3.3465,3.3467,3.3424,3.3491,3.3602,3.3613,3.347,3.3469,3.3468,0,3.3382,3.3414,3.3452,3.3458,3.3462,3.348,3.3483,3.3488,3.35,3.3514,3.3521,3.3539,3.3548,3.3563,3.355,3.3523,3.3597,3.3557,3.3594,3.3595,3.361,3.3609,3.3725,3.3618,3.3618,3.3618,3.3617,0,3.3464,3.35,3.3484,3.3508,3.3547,3.353,3.357,3.3569,3.3575,3.3598,3.3574,3.3597,3.3579,3.3601,3.3592,3.363,3.3635,3.3632,3.3629,3.3634,3.3635,3.3641,3.3635,3.3621,3.362,3.3619,3.3619,0,3.3549,3.354,3.358,3.3582,3.3583,3.3612,3.3614,3.3636,3.3631,3.3661,3.3667,3.366,3.3684,3.3673,3.3699,3.3693,3.3743,3.3733,3.374,3.3738,3.3776,3.3773,3.3899,3.3915,3.3798,3.3799,3.38,0,3.3602,3.3629,3.3634,3.3648,3.3653,3.3676,3.3689,3.3674,3.3688,3.37,3.3722,3.3744,3.3761,3.3802,3.3799,3.3818,3.3809,3.3852,3.3812,3.3817,3.381,3.3809,3.3812,3.386,3.3861,3.3862,3.3863,0,3.3697,3.3692,3.3711,3.373,3.3746,3.376,3.3772,3.3785,3.3771,3.3789,3.3814,3.3827,3.3854,3.3877,3.3895,3.3898,3.3879,3.3877,3.3886,3.3891,3.3895,3.3894,3.3762,3.3873,3.3872,3.3872,3.3871,3.3871,3.3768,3.3791,3.3799,3.3822,3.383,3.3842,3.3864,3.3863,3.3883,3.3904,3.3895,3.3924,3.3933,3.3956,3.3962,3.3985,3.3969,3.3982,3.3986,3.399,3.3995,3.3892,3.3989,3.3988,3.3988,3.3988,3.3988,0,3.3862,3.3867,3.3888,3.3906,3.3925,3.3906,3.3919,3.3936,3.3962,3.3972,3.399,3.402,3.4043,3.4043,3.4065,3.4084,3.4076,3.409,3.4088,3.409,3.4008,3.3998,3.4096,3.4096,3.4096,3.4096,3.4096,3.4096,3.3914,3.3953,3.3949,3.3993,3.3997,3.4026,3.4035,3.4047,3.4055,3.409,3.4109,3.4109,3.4116,3.4138,3.4159,3.4159,3.4168,3.4186,3.4182,3.4106,3.4095,3.4085,3.4075,3.4188,3.4188,3.4261,3.4262,3.4262]},{"header":{"parameterUnit":"m.s-1","parameterCategory":1,"la1":30.2991,"la2":30.254,"lo1":-89.0895,"lo2":-89.0444,"dy":0.0017,"dx":0.0017,"nx":28,"ny":28,"refTime":"2026-01-30T09:00:00:Z","depth":0,"parameterNumber":3,"parameterNumberName":"V-component_of_WINDS"},"data":[0,0,0,0,0,0,0,0,0,0,0,0,0,0,0,0,0,0,0,0,0,0,0,0,0,0,0,0,0,0,0,0,0,0,0,0,0,0,0,0,0,0,0,0,0,0,0,0,0,0,0,0,0,0,0,0,0,0,-9.1256,-9.1258,0,-9.1451,-9.1454,-9.1456,-9.1393,-9.1389,-9.1385,-9.1381,-9.1573,-9.1581,-9.159,0,0,0,0,0,0,0,0,0,0,0,0,0,-9.0822,-9.0831,-9.1256,-9.1258,-9.1261,-9.1451,-9.1454,-9.1456,-9.1394,-9.1389,-9.1384,-9.1379,-9.157,-9.158,-9.1591,0,0,0,0,0,0,0,0,0,0,0,0,0,-9.1013,-9.0833,-9.1255,-9.1253,-9.1254,-9.1451,-9.1454,-9.1457,-9.1395,-9.1388,-9.1382,-9.1376,-9.1566,-9.1579,-9.1593,-9.1801,0,0,-9.1634,-9.164,0,0,0,0,0,0,0,0,-9.1002,-9.1029,-9.1251,-9.1253,-9.1255,-9.1392,-9.1371,-9.1572,-9.1396,-9.1341,-9.1381,-9.1373,-9.1517,-9.1534,-9.1584,-9.181,-9.1818,-9.1635,-9.1643,-9.1649,-9.1653,0,0,0,0,0,0,0,-9.0989,-9.102,-9.1333,-9.1254,-9.1257,-9.124,-9.126,-9.1409,-9.1461,-9.1345,-9.1341,-9.1366,-9.1517,-9.1571,-9.1588,-9.1821,-9.1635,-9.1647,-9.1655,-9.166,-9.2228,-9.2235,0,0,0,0,0,0,-9.0976,-9.101,-9.1327,-9.1339,-9.1111,-9.1253,-9.1275,-9.1354,-9.146,-9.147,-9.1371,-9.1362,-9.1551,-9.1573,-9.1595,-9.1846,-9.1649,-9.1662,-9.1669,-9.2221,-9.223,-9.2237,0,0,0,0,0,0,-9.0967,-9.1004,-9.1319,-9.1174,-9.1212,-9.1267,-9.1356,-9.1361,-9.1416,-9.1479,-9.1487,-9.1417,-9.1547,-9.1576,-9.1751,-9.1852,-9.1668,-9.168,-9.2213,-9.2224,-9.2234,-9.2351,0,0,0,0,0,0,-9.0954,-9.1002,-9.1083,-9.1176,-9.122,-9.1474,-9.1362,-9.137,-9.144,-9.143,-9.1525,-9.1534,-9.1545,-9.1731,-9.1764,-9.1867,-9.169,-9.2204,-9.2218,-9.223,-9.2338,-9.2364,-9.2386,0,0,0,0,0,-9.0939,-9.1106,-9.1087,-9.1126,-9.1323,-9.148,-9.1505,-9.1516,-9.1448,-9.1529,-9.1571,-9.1531,-9.1836,-9.175,-9.1786,-9.1895,-9.2198,-9.2214,-9.2229,-9.2327,-9.2359,-9.2386,0,0,0,0,0,0,-9.1019,-9.1118,-9.1098,-9.13,-9.1383,-9.1469,-9.1572,-9.1549,-9.165,-9.1636,-9.1643,-9.1665,-9.1845,-9.1887,-9.1789,-9.2103,-9.2006,-9.203,-9.2068,-9.2099,-9.2123,-9.2108,-9.1702,0,0,0,0,0,-9.1061,-9.1183,-9.1261,-9.1432,-9.1475,-9.1517,-9.1585,-9.1587,-9.1671,-9.1705,-9.1759,-9.184,-9.1954,-9.2029,-9.2137,-9.2344,-9.2364,-9.2437,-9.2461,-9.248,-9.2501,-9.2614,-9.2648,-9.2289,-9.2289,-9.2289,0,0,-9.1148,-9.1216,-9.1292,-9.145,-9.1514,-9.1638,-9.1546,-9.168,-9.1772,-9.1724,-9.1894,-9.1937,-9.2028,-9.2221,-9.2308,-9.2261,-9.2604,-9.25,-9.2516,-9.2525,-9.2634,-9.2668,-9.2698,-9.23,-9.2298,-9.2296,0,0,-9.1369,-9.1434,-9.1584,-9.1651,-9.175,-9.1777,-9.1814,-9.1905,-9.1932,-9.2104,-9.2071,-9.2178,-9.2375,-9.2442,-9.2501,-9.2751,-9.2719,-9.2786,-9.2911,-9.3021,-9.305,-9.3075,-9.3164,-9.3196,-9.2806,-9.2806,-9.2807,0,-9.1463,-9.1651,-9.1663,-9.1802,-9.1872,-9.1838,-9.199,-9.2053,-9.2182,-9.223,-9.2177,-9.2425,-9.2483,-9.2691,-9.2753,-9.2802,-9.2843,-9.2775,-9.3045,-9.307,-9.3094,-9.3179,-9.3213,-9.2814,-9.2813,-9.2812,-9.2812,0,-9.1762,-9.1893,-9.2002,-9.2131,-9.2214,-9.2358,-9.239,-9.2472,-9.2467,-9.2499,-9.2674,-9.2744,-9.2867,-9.2916,-9.2911,-9.3125,-9.3093,-9.3043,-9.2946,-9.3136,-9.3216,-9.3248,-9.2825,-9.2822,-9.282,-9.2818,0,0,-9.2037,-9.2174,-9.2213,-9.2272,-9.2381,-9.2481,-9.2624,-9.2747,-9.2817,-9.2907,-9.3027,-9.3195,-9.315,-9.3218,-9.322,-9.3318,-9.3512,-9.3255,-9.3258,-9.3301,-9.3751,-9.3788,-9.3826,-9.3491,-9.3498,-9.3503,-9.3744,0,-9.2267,-9.2522,-9.2538,-9.2767,-9.2888,-9.2858,-9.2983,-9.3062,-9.3096,-9.3202,-9.3239,-9.3359,-9.329,-9.3331,-9.3426,-9.3468,-9.3602,-9.3451,-9.3601,-9.3606,-9.3579,-9.3868,-9.3907,-9.4131,-9.3775,-9.378,-9.3784,0,-9.257,-9.2674,-9.2916,-9.3009,-9.3061,-9.3172,-9.3288,-9.339,-9.3479,-9.3497,-9.3575,-9.3564,-9.3709,-9.3609,-9.3808,-9.3705,-9.3767,-9.3797,-9.3806,-9.3819,-9.3706,-9.3889,-9.4202,-9.4236,-9.3833,-9.3829,-9.3826,0,-9.2747,-9.2946,-9.3118,-9.3169,-9.3282,-9.3362,-9.3412,-9.3495,-9.3569,-9.3669,-9.3716,-9.3831,-9.3893,-9.3981,-9.4001,-9.3926,-9.42,-9.4101,-9.4218,-9.4218,-9.4276,-9.4272,-9.4604,-9.4317,-9.4317,-9.4316,-9.4315,0,-9.3002,-9.3151,-9.3199,-9.3304,-9.3471,-9.3487,-9.3651,-9.3695,-9.377,-9.3882,-9.3863,-9.3968,-9.3988,-9.4097,-9.4114,-9.4276,-9.4304,-9.4322,-9.4324,-9.4324,-9.4322,-9.4364,-9.4349,-9.4325,-9.4323,-9.4321,-9.432,0,-9.3227,-9.3265,-9.345,-9.3544,-9.3571,-9.3689,-9.3768,-9.3868,-9.3901,-9.4044,-9.4078,-9.4129,-9.4257,-9.4286,-9.4436,-9.4447,-9.464,-9.4627,-9.4612,-9.461,-9.4726,-9.4715,-9.5096,-9.5147,-9.4827,-9.483,-9.4833,0,-9.3387,-9.3502,-9.3609,-9.3685,-9.374,-9.3861,-9.3937,-9.3958,-9.4038,-9.415,-9.4236,-9.4363,-9.4464,-9.4669,-9.4718,-9.4834,-9.4823,-9.4949,-9.484,-9.4837,-9.4825,-9.4818,-9.483,-9.4969,-9.4973,-9.4976,-9.4978,0,-9.3668,-9.3682,-9.3794,-9.3915,-9.4007,-9.4101,-9.4191,-9.4253,-9.4286,-9.4377,-9.4509,-9.4589,-9.4745,-9.487,-9.4986,-9.5035,-9.5013,-9.5012,-9.5046,-9.5046,-9.5032,-9.5041,-9.4668,-9.5003,-9.5001,-9.4999,-9.4997,-9.4996,-9.3865,-9.3967,-9.4059,-9.4185,-9.4256,-9.4341,-9.4441,-9.4488,-9.46,-9.4731,-9.4736,-9.488,-9.4966,-9.5121,-9.5177,-9.5289,-9.525,-9.5298,-9.531,-9.5321,-9.5332,-9.5015,-9.531,-9.5309,-9.5309,-9.5308,-9.5308,0,-9.4145,-9.4204,-9.432,-9.4449,-9.4548,-9.4522,-9.462,-9.4704,-9.4832,-9.4917,-9.5019,-9.5171,-9.5293,-9.5353,-9.5474,-9.5551,-9.5544,-9.5582,-9.5576,-9.5588,-9.536,-9.5319,-9.5586,-9.5586,-9.5586,-9.5586,-9.5586,-9.5586,-9.4302,-9.4473,-9.4498,-9.4704,-9.476,-9.4904,-9.4963,-9.5041,-9.5109,-9.5281,-9.5384,-9.5424,-9.5498,-9.5624,-9.5735,-9.5749,-9.5794,-9.5838,-9.5847,-9.5632,-9.5604,-9.5577,-9.5539,-9.5848,-9.5848,-9.6066,-9.6068,-9.6069]}]]